Regional Weather Roundup
Issued by NWS Sioux Falls, SD

Home | Current Version | Previous Version | Text Only | Print | Product List | Glossary On
Versions: 1 2 3 4 5 6 7 8 9 10 11 12 13 14 15 16 17 18 19 20 21 22 23 24 25 26 27 28 29 30 31 32 33 34 35 36 37 38 39 40 41 42 43 44 45 46 47 48 49 50
000
ASUS43 KFSD 310610
RWRFSD

WEATHER ROUNDUP FOR SE SOUTH DAKOTA/SW MINNESOTA/NW IOWA
NATIONAL WEATHER SERVICE SIOUX FALLS SD
1200 AM CST SAT JAN 31 2015

NOTE: "FAIR" INDICATES FEW OR NO CLOUDS BELOW 12,000 FEET WITH NO
SIGNIFICANT WEATHER AND OR OBSTRUCTIONS TO VISIBILITY.


SDZ038>040-050-052>070-310700-
SOUTHEAST SOUTH DAKOTA

CITY           SKY/WX    TMP DP  RH WIND       PRES   REMARKS
CHAMBERLAIN    PTCLDY    26  21  83 CALM      30.11F
6HR MIN TEMP:  26; 6HR MAX TEMP:  40;

HURON          CLEAR     26  23  88 N7        30.12F WCI  18
6HR MIN TEMP:  23; 6HR MAX TEMP:  38;

MADISON        FAIR      30  30 100 SW8       30.10F WCI  23
MITCHELL       PTCLDY    27  25  92 S3        30.12F
6HR MIN TEMP:  27; 6HR MAX TEMP:  39;

SIOUX FALLS    CLEAR     32  26  78 SW5       30.12F WCI  27
6HR MIN TEMP:  31; 6HR MAX TEMP:  35;

WINNER         FAIR      32  24  72 W3        30.12S
YANKTON        CLEAR     37  27  65 SW12      30.13F
$$

MNZ071-072-080-081-089-090-097-098-310700-
SOUTHWEST MINNESOTA

CITY           SKY/WX    TMP DP  RH WIND       PRES   REMARKS
FAIRMONT       CLEAR     27  21  80 S10       30.13F WCI  17
JACKSON        CLEAR     30  25  80 SW12      30.14F WCI  21
LUVERNE        CLEAR     28  25  86 S3        30.14S FOG
MARSHALL       CLEAR     30  25  80 W9        30.13F WCI  22
6HR MIN TEMP:  30; 6HR MAX TEMP:  34;

MONTEVIDEO     CLEAR     28  27  93 W3        30.13F
PIPESTONE      CLEAR     28  27  93 SW5       30.10F WCI  23
REDWOOD FALLS  CLEAR     24  21  88 SW5       30.12F WCI  18
TRACY          CLEAR     31  28  86 SW10      30.12S WCI  23
WINDOM         CLEAR     28  27  93 SW8       30.13F WCI  20
WORTHINGTON    CLEAR     28  25  86 SW13      30.13S WCI  18
$$

IAZ001>003-012>014-020>022-031-032-NEZ013-014-SDZ071-310700-
NORTHWEST IOWA

CITY           SKY/WX    TMP DP  RH WIND       PRES   REMARKS
CHEROKEE       CLEAR     27  26  93 S7        30.17F WCI  20
DENISON        PTCLDY    30  25  80 S8        30.20S WCI  23
ESTHERVILLE    CLEAR     27  23  85 SW12      30.15F WCI  17
LE MARS        CLEAR     30  27  86 S5        30.17F WCI  25
ORANGE CITY    CLEAR     28  25  86 S8        30.15F WCI  20
SHELDON        CLEAR     28  27  93 S10       30.14F WCI  19
SIOUX CITY     MOCLDY    28  24  85 E7        30.19F WCI  21
6HR MIN TEMP:  27; 6HR MAX TEMP:  37;

SPENCER        FAIR      30  24  78 SW10      30.16F WCI  21
6HR MIN TEMP:  29; 6HR MAX TEMP:  32;

STORM LAKE     CLEAR     30  25  80 SW14      30.18F WCI  20
$$

ABBREVIATIONS USED IN REMARKS
   TC - TEMPERATURE IN CELSIUS
  WCI - WIND CHILL INDEX
   HX - HEAT INDEX
  VSB - VISIBILITY



USA.gov is the U.S. government's official web portal to all federal, state and local government web resources and services.